Location: Lombard
(41.8800°N, 88.0080°W)
Time: 07:07:04
(UTC-05:00)

Vanguard 3 - Pass Details

Date: 31 January 2023
Orbit: 508 x 3249 km, 33.4° (Epoch: 27 March)

Event Time Altitude Azimuth Distance (km) Brightness Sun altitude
Rises 18:51:22 0° 227° (SW) 4,310 11.7 -19.8°
Reaches altitude 10° 18:53:57 10° 221° (SW) 3,641 11.1 -20.3°
Maximum altitude 19:03:19 45° 152° (SSE) 2,739 9.6 -22.0°
Enters shadow 19:10:26 29° 104° (ESE) 3,913 10.0 -23.4°
